FENGYUN 3F

Last updated on Thu Oct 16 2025 00:02:22 GMT+0000 (Coordinated Universal Time)

1 57490U 23111A 25288.66618378 .00000112 00000+0 73505-4 0 9990 2 57490 98.7151 357.8779 0001477 89.6861 270.4484 14.19870953114160
UTC large
Height (km)
Speed (km/s)
/
Latitude / Longitude
Inclination (degrees)
Orbital Period (minutes)
Azimuth
Elevation
Range (km)
Doppler Factor

Next 0 passes for location: London (51.5072 / 0.1276)

Sorry there are no passes over London.